Location: Ay?beleni
(36.6500°N, 30.3000°E)
Time: 01:39:37
(UTC+00:00)

CZ-2C R/B - Pass Details

Date: 16 October 2021
Orbit: 387 x 574 km, 35.0° (Epoch: 04 December)

Event Time Altitude Azimuth Distance (km) Brightness Sun altitude
Rises 17:37:27 0° 258° (WSW) 2,343 5.6 -28.1°
Reaches altitude 10° 17:39:38 10° 255° (WSW) 1,457 4.3 -28.5°
Enters shadow 17:40:15 15° 253° (WSW) 1,208 3.7 -28.6°
